Dewpoint
29 23 22 26 30 29 33 31 31 31 32 39 37 45 52 58 60 58 57 57 58 61 62 62 66 68 66 65 66 68 69 69 70 69 69 69 68 69 69 69 69 69 69 68
26 23 25 26 28 29 31 29 26 27 33 37 41 42 50 56 56 56 57 53 57 61 62 62 60 64 64 64 66 68 68 70 70 69 69 69 68 68 67 67 68 68 69 69
26 24 28 27 28 27 26 25 24 23 27 37 40 35 47 52 57 55 54 55 59 60 61 62 59 62 64 65 65 66 66 68 70 70 68 68 67 67 65 66 66 67 68 69
28 30 28 29 27 25 24 26 24 22 22 17 29 22 28 45 49 55 54 51 55 59 62 61 59 61 63 65 65 64 66 69 69 68 67 66 65 64 65 65 66 66 67 67
27 29 29 30 28 26 26 25 24 24 22 24 25 19 23 44 43 47 53 55 55 57 61 62 62 62 63 64 64 65 68 69 69 68 67 66 65 65 65 65 65 65 66 67
26 30 28 27 29 26 28 24 21 25 22 17 23 21 25 38 41 43 49 53 53 55 59 62 63 62 62 64 64 66 67 68 68 67 65 65 64 63 64 65 65 66 66 67
28 27 27 28 27 29 20 17 15 15 15 15 25 29 29 40 46 48 48 51 53 60 61 61 63 62 62 63 63 64 68 67 66 65 65 64 64 64 65 66 66 65 65 66
24 18 28 29 26 24 19 18 17 10 13 15 27 21 28 49 57 55 54 58 62 62 64 62 62 62 63 63 67 68 67 65 65 65 65 65 65 65 65 65 65 65 65 66
26 26 30 29 25 25 24 18 18 19 21 18 21 28 43 53 56 60 59 59 58 59 60 65 65 63 64 67 68 67 65 65 65 65 64 64 64 64 64 65 65 66 66 67
25 23 24 25 27 26 25 23 18 18 15 14 20 32 31 49 52 58 58 57 56 56 60 64 66 67 67 67 67 66 65 65 65 65 64 64 64 65 65 65 65 65 66 66
26 24 20 24 25 23 19 19 19 19 20 17 18 23 37 46 53 57 55 54 54 54 55 63 64 67 67 67 66 65 65 65 65 65 64 64 64 64 65 65 64 65 66 66
27 24 22 20 24 29 22 21 19 20 18 23 21 20 45 46 51 53 57 54 55 57 62 64 65 65 65 65 65 65 64 64 65 65 63 64 64 64 64 65 64 65 65 65
27 25 21 18 18 26 25 23 22 21 23 26 23 22 50 50 53 54 52 55 58 62 62 64 64 65 64 65 65 64 64 65 65 64 63 64 64 64 65 65 64 65 64 64
35 23 23 16 17 25 29 26 25 22 22 22 21 23 42 48 50 53 58 57 59 61 62 63 64 64 64 64 65 64 65 65 65 65 62 62 63 64 65 64 64 64 63 62
29 26 26 25 24 24 26 30 26 27 28 28 29 23 27 47 49 52 58 61 60 61 61 62 62 62 63 63 64 64 65 65 65 65 64 63 64 65 65 64 64 63 61 61
39 28 37 29 35 36 34 34 33 32 30 29 34 31 39 44 52 53 58 60 59 60 61 60 62 62 63 63 62 63 64 65 65 65 64 64 64 65 64 63 62 60 58 59
42 34 31 29 37 35 28 31 34 37 36 35 35 36 51 51 50 52 56 59 59 59 60 60 62 62 62 62 63 63 63 65 66 65 65 64 65 65 64 62 60 57 55 56
43 40 35 31 32 28 29 38 40 39 43 44 44 46 51 52 54 55 56 55 57 58 60 61 61 59 59 60 61 62 63 64 65 65 65 65 65 64 61 60 57 55 52 52
42 42 38 33 31 33 36 44 48 44 39 53 47 51 54 57 56 57 59 58 59 60 60 59 58 57 57 58 60 62 62 62 63 64 64 64 64 62 58 55 53 53 51 50
42 41 39 39 33 31 36 49 54 54 37 56 55 51 54 55 50 53 57 57 56 57 57 56 57 56 56 56 58 60 59 59 58 59 62 64 63 59 56 53 52 51 50 49
30 35 30 38 36 38 47 53 55 37 39 57 54 55 54 53 53 56 56 55 56 56 56 56 55 54 54 55 56 55 55 54 55 55 56 59 58 56 53 51 50 50 49 49
28 30 32 36 34 31 52 53 44 48 58 56 55 55 54 54 54 54 54 54 54 54 54 55 54 53 53 54 54 53 52 53 53 53 53 53 53 52 51 50 51 50 49 48
40 39 34 37 36 48 53 53 57 59 58 56 56 56 54 53 53 53 54 54 54 54 55 55 54 53 52 52 53 52 52 52 52 51 51 50 51 51 51 51 50 50 50 49
45 48 46 45 47 52 54 56 56 57 58 58 56 55 55 53 53 53 54 54 54 54 54 53 52 51 51 52 52 52 52 52 51 50 50 50 49 49 49 50 49 49 48 48
44 47 46 47 50 53 54 56 57 56 57 57 57 56 55 54 53 54 54 54 53 52 51 51 51 51 51 50 50 49 49 48 48 48 48 47 47 46 45 44 46 47 46 47
45 46 45 45 49 49 49 56 58 57 55 56 55 55 55 54 53 53 52 52 52 51 51 51 51 51 50 49 47 47 48 48 48 45 44 44 43 42 41 40 38 40 41 40
Lifted_Index
5 4 4 4 5 5 4 3 3 3 3 3 3 2 -0 -2 -4 -5 -5 -5 -4 -3 -2 -3 -3 -3 -3 -2 -3 -3 -4 -5 -5 -5 -5 -5 -5 -5 -5 -4 -3 -3 -3 -3
4 4 4 5 5 4 4 3 3 3 4 4 3 2 0 -2 -3 -4 -4 -5 -4 -3 -2 -3 -3 -3 -2 -2 -2 -3 -4 -4 -5 -5 -5 -5 -5 -5 -4 -3 -3 -2 -2 -2
4 4 5 5 4 4 4 3 3 3 3 3 3 2 1 0 -1 -2 -3 -4 -4 -3 -2 -2 -3 -3 -2 -1 -2 -2 -3 -4 -5 -5 -5 -5 -5 -4 -3 -2 -1 -1 -1 -1
4 4 5 4 4 4 4 4 4 4 3 3 3 2 2 1 1 -0 -2 -3 -3 -3 -2 -2 -2 -2 -2 -1 -1 -1 -2 -3 -5 -5 -5 -5 -4 -3 -1 -0 -0 -0 -1 -1
4 4 4 4 4 4 4 4 4 4 3 3 2 2 2 2 1 0 -1 -2 -2 -1 -1 -1 -1 -2 -1 -1 -1 -1 -2 -4 -5 -5 -4 -3 -2 -1 0 0 0 -0 -0 -0
4 4 4 4 4 4 4 4 3 3 2 2 2 2 2 2 1 1 0 -0 -1 -1 -1 -1 -1 -1 -1 -1 -1 -1 -2 -4 -4 -4 -2 -1 -0 0 0 0 -0 -0 -1 -1
3 3 4 4 4 4 4 3 2 1 1 1 2 2 2 2 1 0 0 -0 -1 -1 -2 -3 -2 -2 -2 -2 -2 -2 -3 -4 -3 -2 -1 -0 0 0 0 0 -0 -0 -0 -0
2 2 3 4 3 3 3 3 2 1 1 1 2 2 2 1 -0 -1 -1 -1 -2 -3 -3 -4 -3 -2 -2 -2 -3 -3 -3 -3 -3 -1 -1 0 0 0 0 0 0 -0 -0 -0
3 3 3 4 4 3 3 3 2 2 1 1 1 2 1 0 -1 -2 -2 -2 -2 -3 -4 -4 -4 -3 -3 -3 -4 -4 -4 -3 -2 -1 -0 0 0 0 0 0 0 0 -0 -0
4 3 4 4 4 3 3 2 2 2 1 1 1 2 1 0 -1 -2 -3 -3 -2 -2 -2 -4 -5 -5 -4 -4 -4 -4 -3 -3 -2 -1 -0 0 0 0 0 1 1 0 0 -0
4 3 3 4 4 3 3 2 2 1 1 0 1 1 1 1 -1 -3 -3 -3 -2 -1 -2 -3 -5 -5 -5 -5 -4 -4 -3 -2 -2 -1 0 1 0 0 0 1 1 0 0 0
3 2 2 3 3 3 2 2 1 1 1 1 1 1 1 0 -1 -3 -3 -3 -2 -2 -2 -3 -4 -5 -5 -5 -4 -3 -2 -2 -2 -1 0 0 0 -0 0 1 1 1 1 1
2 2 1 2 3 3 2 1 1 1 1 0 1 1 1 -0 -1 -2 -3 -3 -2 -3 -3 -4 -4 -4 -4 -4 -4 -3 -2 -1 -1 -1 -0 0 -0 -0 -0 1 1 1 1 1
2 2 1 1 2 2 1 1 1 1 0 0 0 1 0 -0 -1 -2 -2 -3 -3 -3 -4 -4 -3 -3 -4 -4 -4 -3 -2 -2 -2 -1 -1 -0 -0 -1 -0 1 2 2 2 2
2 1 1 1 1 1 1 1 0 0 -0 -0 -0 0 0 0 -0 -1 -3 -3 -4 -4 -4 -4 -3 -3 -4 -4 -4 -3 -3 -2 -2 -2 -1 -1 -0 -1 -0 1 2 2 2 2
0 1 1 1 1 1 1 0 0 -0 -0 -0 -1 -0 -0 0 -0 -1 -2 -3 -4 -4 -4 -4 -4 -4 -4 -4 -4 -4 -3 -3 -2 -2 -1 -1 -0 -0 0 1 2 3 3 3
-1 -1 0 1 1 1 1 0 0 -0 -1 -1 -1 -1 -0 -0 -0 -1 -1 -3 -4 -4 -4 -4 -4 -4 -4 -4 -4 -4 -3 -3 -2 -2 -2 -1 -1 0 1 2 2 3 3 3
-0 -1 -1 -0 0 1 1 -0 -1 -1 -1 -1 -1 -1 -1 -1 -1 -1 -1 -2 -3 -3 -3 -3 -4 -4 -4 -4 -4 -4 -4 -3 -2 -2 -2 -1 -1 0 1 2 3 3 4 4
1 -0 -1 -1 -0 0 -0 -1 -2 -2 -2 -2 -2 -1 -1 -1 -1 -2 -2 -2 -2 -2 -3 -3 -3 -3 -4 -5 -5 -4 -4 -3 -2 -2 -2 -2 -1 -0 1 2 3 3 3 4
2 1 -0 -1 -1 -0 -1 -2 -2 -2 -2 -2 -2 -2 -1 -2 -2 -2 -3 -2 -2 -2 -3 -3 -3 -3 -4 -4 -4 -3 -2 -1 -1 -1 -1 -1 -1 -0 1 2 2 2 3 3
2 2 2 1 -0 -0 -1 -2 -2 -2 -2 -3 -3 -2 -2 -2 -2 -3 -3 -3 -2 -2 -2 -3 -3 -3 -4 -4 -3 -2 0 1 2 1 0 -1 -1 -1 0 1 1 2 2 3
2 2 2 2 1 0 -1 -2 -2 -2 -3 -3 -3 -2 -2 -2 -2 -2 -3 -3 -3 -2 -2 -3 -3 -3 -3 -2 -1 1 2 3 3 2 1 0 -0 -0 0 1 1 2 2 2
1 1 1 1 1 0 -1 -2 -2 -3 -3 -3 -2 -2 -2 -2 -2 -2 -3 -3 -3 -2 -2 -2 -2 -2 -1 0 2 3 3 3 3 2 2 1 1 0 0 1 1 2 2 2
-0 -0 -0 -0 -0 -1 -1 -2 -2 -3 -3 -2 -2 -2 -1 -1 -1 -2 -2 -2 -2 -1 -1 -1 -1 -0 1 3 4 4 3 3 3 3 2 2 1 1 1 1 1 2 2 3
-0 -1 -1 -1 -1 -1 -1 -1 -2 -2 -2 -2 -1 -1 -1 -1 -1 -1 -1 -1 -0 1 1 1 1 2 3 4 4 4 4 3 3 3 2 2 2 2 2 2 2 3 4 4
-0 -1 -1 -1 -1 -1 -1 -1 -1 -1 -2 -2 -1 -1 -0 -0 -0 0 0 0 1 1 2 2 3 3 3 4 4 4 4 4 3 3 2 2 2 2 3 3 3 4 5 6